This demonstration page uses our WeatherBlox Daily Observations layout. Learn more.

Left ArrowRight Arrow

40.92945, -100.16068

Hourly Observations for February 5, 2015

Temp ( °F °C ) Dew Point ( °F °C ) Humidity (%) Winds ( mph kmh ) Pressure ( in mb ) Visibility ( mi km ) Precip ( " mm )
12:15 am 00:15 Clear -4 -20 -8 -22.3 82 82 Calm 30.71 1040 10 16 N/A
12:35 am 00:35 Clear -4 -20 -8 -22.3 82 82 Calm 30.71 1040 10 16 N/A
12:55 am 00:55 Clear -3 -19.7 -8 -22 82 82 SSE 3 6 30.68 1039 10 16 N/A
1:15 am 01:15 Clear -1 -18.4 -5 -20.4 84 84 S 6 9 30.65 1038 10 16 N/A
1:35 am 01:35 Clear 4 -15.6 1 -17.5 85 85 S 7 11 30.65 1038 10 16 N/A
1:55 am 01:55 Clear 5 -15 1 -17 85 85 S 8 13 30.59 1036 10 16 N/A
2:15 am 02:15 Clear 8 -13.5 4 -15.3 86 86 S 9 15 30.56 1035 10 16 N/A
2:35 am 02:35 Clear 9 -13 6 -14.7 87 87 S 8 13 30.56 1035 10 16 N/A
2:55 am 02:55 Clear 11 -11.5 8 -13.5 85 85 S 14 22 30.50 1033 10 16 N/A
3:15 am 03:15 Clear 12 -11.1 7 -14.1 79 79 S 12 19 30.50 1033 10 16 N/A
3:35 am 03:35 Clear 12 -11 6 -14.2 78 78 S 13 20 30.48 1032 10 16 N/A
3:55 am 03:55 Clear 13 -10.6 7 -14.1 76 76 S 14 22 30.48 1032 10 16 N/A
4:15 am 04:15 Clear 13 -10.3 7 -14 75 75 SSW 16 26 30.48 1032 10 16 N/A
4:35 am 04:35 Clear 14 -10.1 7 -14 73 73 SSW 16 26 30.45 1031 10 16 N/A
4:55 am 04:55 Clear 14 -10.1 8 -13.6 76 76 SSW 17 28 30.45 1031 10 16 N/A
5:15 am 05:15 Clear 14 -10.2 8 -13.5 77 77 S 17 28 30.45 1031 10 16 N/A
5:35 am 05:35 Clear 14 -10 9 -13 79 79 S 15 24 30.45 1031 10 16 N/A
5:55 am 05:55 Clear 14 -10 9 -12.8 80 80 S 16 26 30.42 1030 10 16 0.00 0.00
6:15 am 06:15 Clear 14 -10 9 -12.7 81 81 S 15 24 30.42 1030 10 16 N/A
6:35 am 06:35 Clear 14 -10 9 -12.7 81 81 S 13 20 30.42 1030 10 16 N/A
6:55 am 06:55 Clear 14 -10 10 -12.5 82 82 S 15 24 30.42 1030 10 16 N/A
7:15 am 07:15 Clear 15 -9.5 10 -12.1 82 82 S 14 22 30.39 1029 10 16 N/A
7:35 am 07:35 Clear 15 -9.5 10 -12 82 82 S 15 24 30.39 1029 10 16 N/A
7:55 am 07:55 Sunny 15 -9.2 11 -11.7 82 82 S 10 17 30.39 1029 10 16 N/A
8:15 am 08:15 Sunny 17 -8.4 12 -11.2 80 80 SSW 10 17 30.39 1029 10 16 N/A
8:35 am 08:35 Sunny 18 -7.6 12 -11 77 77 SSW 16 26 30.36 1028 10 16 N/A
8:55 am 08:55 Sunny 19 -7.2 13 -10.7 76 76 SSW 14 22 30.36 1028 10 16 N/A
9:15 am 09:15 Sunny 20 -6.8 13 -10.3 76 76 SSW 15 24 30.36 1028 10 16 N/A
9:35 am 09:35 Sunny 21 -6.2 15 -9.7 77 77 SSW 17 28 30.33 1027 10 16 N/A
9:55 am 09:55 Sunny 22 -5.5 16 -9.1 76 76 SSW 16 26 30.33 1027 10 16 N/A
10:15 am 10:15 Sunny 23 -4.9 17 -8.5 76 76 SSW 15 24 30.33 1027 10 16 N/A
10:35 am 10:35 Sunny 25 -4.1 18 -7.7 76 76 SSW 14 22 30.33 1027 10 16 N/A
10:55 am 10:55 Sunny 26 -3.3 19 -7 76 76 SW 14 22 30.30 1026 10 16 N/A
11:15 am 11:15 Sunny 27 -2.6 20 -6.6 74 74 SW 14 22 30.30 1026 10 16 N/A
11:35 am 11:35 Sunny 29 -1.7 21 -6 73 73 SW 12 19 30.27 1025 10 16 N/A
11:55 am 11:55 Sunny 31 -0.8 22 -5.3 72 72 WSW 9 15 30.30 1026 10 16 N/A
12:15 pm 12:15 Sunny 32 -0.1 23 -4.9 70 70 SW 9 15 30.24 1024 10 16 N/A
12:35 pm 12:35 Sunny 33 0.4 24 -4.3 71 71 SW 7 11 30.24 1024 10 16 N/A
12:55 pm 12:55 Sunny 34 1.2 25 -3.9 69 69 SW 7 11 30.24 1024 10 16 N/A
1:15 pm 13:15 Sunny 36 2 26 -3.2 69 69 SW 8 13 30.18 1022 10 16 N/A
1:35 pm 13:35 Sunny 37 2.7 27 -2.8 67 67 SW 8 13 30.15 1021 10 16 N/A
1:55 pm 13:55 Sunny 38 3.4 27 -2.8 64 64 SW 7 11 30.15 1021 10 16 N/A
2:15 pm 14:15 Sunny 39 4.1 29 -1.9 65 65 SW 8 13 30.15 1021 10 16 N/A
2:35 pm 14:35 Sunny 40 4.7 29 -1.8 63 63 SW 7 11 30.12 1020 10 16 N/A
2:55 pm 14:55 Sunny 42 5.5 30 -1.1 63 63 SW 7 11 30.12 1020 10 16 N/A
3:15 pm 15:15 Sunny 43 6.1 31 -0.8 62 62 SW 7 11 30.09 1019 10 16 N/A
3:35 pm 15:35 Sunny 44 6.7 30 -0.9 59 59 SW 6 9 30.09 1019 10 16 N/A
3:55 pm 15:55 Sunny 45 7 31 -0.6 59 59 SSW 6 9 30.09 1019 10 16 N/A
4:15 pm 16:15 Sunny 44 6.5 32 -0.1 63 63 SSW 7 11 30.09 1019 10 16 N/A
4:35 pm 16:35 Sunny 43 6.1 32 0 65 65 SSW 8 13 30.09 1019 10 16 N/A
4:55 pm 16:55 Sunny 43 6.1 32 0 65 65 S 5 7 30.09 1019 10 16 N/A
5:15 pm 17:15 Sunny 44 6.5 33 0.4 65 65 S 3 6 30.09 1019 10 16 N/A
5:35 pm 17:35 Sunny 43 5.9 32 0.1 67 67 S 5 7 30.09 1019 10 16 N/A
5:55 pm 17:55 Sunny 40 4.6 32 -0.2 71 71 S 7 11 30.09 1019 10 16 N/A
6:15 pm 18:15 Clear 39 3.8 31 -0.5 74 74 SSE 7 11 30.09 1019 10 16 N/A
6:35 pm 18:35 Clear 38 3.5 30 -1 73 73 SSE 8 13 30.09 1019 10 16 N/A
6:55 pm 18:55 Clear 37 2.9 30 -1.1 75 75 S 8 13 30.12 1020 10 16 N/A
7:15 pm 19:15 Clear 36 2.1 30 -1.1 80 80 SSE 6 9 30.12 1020 10 16 N/A
7:35 pm 19:35 Clear 38 3.1 30 -1 75 75 SE 5 7 30.12 1020 10 16 N/A
7:55 pm 19:55 Clear 37 2.5 30 -1.3 76 76 SSE 7 11 30.12 1020 10 16 N/A
8:15 pm 20:15 Clear 37 2.6 30 -1 77 77 SSE 7 11 30.12 1020 10 16 N/A
8:35 pm 20:35 Clear 37 2.6 30 -0.9 78 78 S 8 13 30.12 1020 10 16 N/A
8:55 pm 20:55 Clear 38 3.2 31 -0.8 75 75 S 5 7 30.12 1020 10 16 N/A
9:15 pm 21:15 Clear 38 3.5 31 -0.5 75 75 SSW 8 13 30.09 1019 10 16 N/A
9:35 pm 21:35 Clear 40 4.6 31 -0.5 70 70 S 3 6 30.09 1019 10 16 N/A
9:55 pm 21:55 Clear 40 4.5 31 -0.7 69 69 SSE 6 9 30.06 1018 10 16 N/A
10:15 pm 22:15 Clear 39 4 31 -0.8 71 71 SE 3 6 30.06 1018 10 16 N/A
10:35 pm 22:35 Clear 38 3.4 30 -0.9 74 74 SE 3 6 30.09 1019 10 16 N/A
10:55 pm 22:55 Clear 38 3.4 30 -0.9 74 74 S 6 9 30.09 1019 10 16 N/A
11:15 pm 23:15 Clear 40 4.6 31 -0.3 71 71 S 7 11 30.03 1017 10 16 N/A
11:35 pm 23:35 Clear 39 4.1 31 -0.6 72 72 Calm 30.03 1017 10 16 N/A
11:55 pm 23:55 Clear 40 4.5 31 -0.4 71 71 SW 10 17 30.03 1017 10 16 N/A

Powered by AerisWeather